This is the latest recevied weather packets stored in our database for station/object KN6CW-3. If no packets are shown the sender has not sent any weather packets the latest 10 day(s).
| Time | Temp. | Humidity | Pressure | Rain* | Wind** | Luminosity | Snow |
|---|---|---|---|---|---|---|---|
| 1778109065 | 13.89° C | 98% | 1006.5 hPa | 0 mm | - | 7 W/m² | - |
| 1778108765 | 13.89° C | 98% | 1006.4 hPa | 0 mm | - | 9 W/m² | - |
| 1778108465 | 13.89° C | 98% | 1006.4 hPa | 0 mm | - | 11 W/m² | - |
| 1778108164 | 13.89° C | 98% | 1006.5 hPa | 0 mm | - | 16 W/m² | - |
| 1778107865 | 14.44° C | 98% | 1006.4 hPa | 0 mm | - | 21 W/m² | - |
| 1778107564 | 14.44° C | 98% | 1006.3 hPa | 0 mm | - | 12 W/m² | - |
| 1778107263 | 14.44° C | 98% | 1006.2 hPa | 0 mm | - | 19 W/m² | - |
| 1778106963 | 14.44° C | 99% | 1006.3 hPa | 0 mm | - | 25 W/m² | - |
| 1778106663 | 14.44° C | 99% | 1006.4 hPa | 0 mm | - | 18 W/m² | - |
| 1778106362 | 14.44° C | 98% | 1006.3 hPa | 0 mm | - | 19 W/m² | - |
| 1778106062 | 14.44° C | 99% | 1006.2 hPa | 0 mm | - | 16 W/m² | - |
| 1778105762 | 14.44° C | 99% | 1006.2 hPa | 0 mm | - | 19 W/m² | - |
| 1778105461 | 14.44° C | 99% | 1006 hPa | 0 mm | - | 46 W/m² | - |
| 1778105161 | 14.44° C | 98% | 1005.9 hPa | 0 mm | - | 63 W/m² | - |
| 1778104861 | 14.44° C | 98% | 1005.8 hPa | 0 mm | - | 100 W/m² | - |
| 1778104561 | 14.44° C | 98% | 1005.8 hPa | 0 mm | - | 56 W/m² | - |
| 1778104260 | 14.44° C | 98% | 1005.8 hPa | 0 mm | - | 40 W/m² | - |
| 1778103961 | 14.44° C | 99% | 1005.7 hPa | 0 mm | - | 42 W/m² | - |
| 1778103660 | 14.44° C | 98% | 1005.8 hPa | 0 mm | - | 72 W/m² | - |
| 1778103359 | 14.44° C | 99% | 1005.7 hPa | 0 mm | - | 62 W/m² | - |
| 1778103059 | 14.44° C | 99% | 1005.6 hPa | 0 mm | - | 63 W/m² | - |
| 1778102759 | 14.44° C | 99% | 1005.5 hPa | 0 mm | - | 93 W/m² | - |
| 1778102459 | 13.89° C | 99% | 1005.4 hPa | 0 mm | - | 98 W/m² | - |
| 1778102158 | 13.89° C | 99% | 1005.4 hPa | 0 mm | - | 86 W/m² | - |
| 1778101859 | 14.44° C | 99% | 1005.4 hPa | 0 mm | - | 90 W/m² | - |
* Rain latest hour (hover to see other rain measurements)
** Current wind speed in m/s (hover to see current wind gust speed)